FW7501 Weather Reports


Display with metric or nautical units.
time (UTC)temp
F
wind
direction
speed
MPH
gust
MPH
rain 1hr
in
rain 24hr
in
rain mn
in
humidity
%
barometer
mb
20260505034505 55 236 5.0 10.0 0.00 0.03 0.00 67 1021.1
20260505034004 55 248 4.0 11.0 0.00 0.03 0.00 66 1021.1
20260505033506 55 255 3.0 11.0 0.00 0.03 0.00 67 1021.2
20260505033015 55 210 4.0 9.0 0.00 0.03 0.00 67 1021.1
20260505032507 54 267 3.0 8.0 0.00 0.03 0.00 68 1021.0
20260505031519 54 260 5.0 8.0 0.00 0.03 0.00 68 1021.1
20260505031007 54 241 4.0 12.0 0.00 0.03 0.00 67 1021.2
20260505030504 54 245 6.0 12.0 0.00 0.03 0.00 68 1021.2
20260505030036 54 222 5.0 9.0 0.00 0.03 0.00 68 1021.2
20260505025508 54 253 4.0 13.0 0.00 0.03 0.00 68 1021.2
20260505025006 53 263 7.0 13.0 0.00 0.03 0.00 70 1021.2
20260505024516 53 234 5.0 12.0 0.00 0.03 0.00 70 1021.2
20260505024004 53 233 6.0 12.0 0.00 0.03 0.00 70 1021.2
20260505023504 54 245 6.0 10.0 0.00 0.03 0.00 69 1021.3
20260505023016 54 254 7.0 10.0 0.00 0.03 0.00 68 1021.4
20260505022506 54 262 5.0 10.0 0.00 0.03 0.00 69 1021.4
20260505022008 54 289 4.0 11.0 0.00 0.03 0.00 68 1021.4
20260505021008 53 250 3.0 12.0 0.00 0.03 0.00 70 1021.5
20260505020507 54 260 7.0 13.0 0.00 0.03 0.00 71 1021.6
20260505020010 54 254 8.0 13.0 0.00 0.03 0.00 70 1021.5
20260505015509 54 258 9.0 13.0 0.00 0.03 0.00 69 1021.6
20260505014532 54 252 8.0 13.0 0.00 0.03 0.00 70 1021.6
20260505013507 54 245 7.0 15.0 0.00 0.03 0.00 69 1021.7
20260505013017 54 241 8.0 15.0 0.00 0.03 0.00 68 1021.6
20260505012507 54 262 6.0 14.0 0.00 0.03 0.00 68 1021.7
20260505012006 55 277 6.0 13.0 0.00 0.03 0.00 67 1021.7
20260505011515 54 247 8.0 22.0 0.00 0.03 0.00 68 1021.6
20260505011007 54 230 12.0 22.0 0.00 0.03 0.00 68 1021.5
20260505010507 54 256 15.0 21.0 0.00 0.03 0.00 67 1021.4
20260505010020 54 231 8.0 14.0 0.00 0.03 0.00 69 1021.5
20260505005512 54 218 9.0 16.0 0.00 0.03 0.00 69 1021.4
20260505005008 54 264 10.0 16.0 0.00 0.03 0.00 69 1021.4
20260505004010 55 234 10.0 16.0 0.00 0.03 0.00 70 1021.3
20260505003508 54 242 8.0 15.0 0.00 0.03 0.00 72 1021.2
20260505003015 54 233 7.0 13.0 0.00 0.03 0.00 71 1021.2
20260505002509 54 287 9.0 12.0 0.00 0.03 0.00 71 1021.1
20260505002008 53 242 6.0 14.0 0.00 0.03 0.00 72 1021.1
20260505001510 53 210 8.0 14.0 0.00 0.03 0.00 72 1020.9
20260505001007 53 241 10.0 15.0 0.00 0.03 0.00 72 1020.9
20260505000511 54 270 10.0 15.0 0.00 0.03 0.00 74 1020.9
20260505000018 53 233 9.0 13.0 0.00 0.03 0.00 75 1021.0
20260504235507 53 254 7.0 11.0 0.00 0.03 0.00 78 1020.9
20260504235008 52 254 5.0 11.0 0.00 0.03 0.00 78 1020.9
20260504234521 52 278 7.0 10.0 0.00 0.03 0.00 79 1020.9
20260504234008 52 263 4.0 10.0 0.00 0.03 0.00 79 1020.9
20260504233025 52 256 5.0 11.0 0.00 0.03 0.00 81 1020.8
20260504232014 52 253 7.0 13.0 0.00 0.03 0.00 82 1020.8
20260504231523 51 241 7.0 13.0 0.00 0.03 0.00 83 1020.9
20260504231011 51 266 7.0 12.0 0.00 0.03 0.00 84 1020.8
20260504230513 51 256 4.0 9.0 0.00 0.03 0.00 86 1020.6
20260504230022 51 247 1.0 7.0 0.00 0.03 0.00 86 1020.7
20260504225508 51 280 3.0 7.0 0.00 0.03 0.00 86 1020.6
20260504225011 51 305 3.0 6.0 0.00 0.03 0.00 86 1020.4
20260504224518 51 299 0.0 3.0 0.00 0.03 0.00 86 1020.5
20260504224007 50 310 0.0 3.0 0.00 0.03 0.00 86 1020.4
20260504222510 51 287 1.0 6.0 0.00 0.03 0.00 86 1020.2
20260504222010 51 285 3.0 7.0 0.00 0.03 0.00 86 1020.1
20260504221536 51 297 3.0 7.0 0.00 0.03 0.00 85 1020.0
20260504221011 51 320 1.0 6.0 0.00 0.03 0.00 85 1020.0
20260504220508 51 322 3.0 6.0 0.00 0.03 0.00 85 1020.0
20260504220029 51 314 1.0 5.0 0.00 0.03 0.00 85 1019.9
20260504215509 51 25 1.0 4.0 0.00 0.03 0.00 84 1019.8
20260504215010 51 341 1.0 5.0 0.00 0.03 0.00 84 1019.7
20260504214006 51 337 3.0 5.0 0.00 0.03 0.00 84 1019.4
20260504213509 51 15 3.0 5.0 0.00 0.03 0.00 84 1019.2
20260504213019 51 8 0.0 3.0 0.00 0.03 0.00 84 1019.1
20260504212510 51 8 0.0 5.0 0.00 0.03 0.00 84 1019.2
20260504212005 51 352 3.0 5.0 0.00 0.03 0.00 84 1019.2
20260504211507 51 324 3.0 4.0 0.00 0.03 0.00 84 1019.2
20260504211004 51 311 2.0 5.0 0.00 0.03 0.00 84 1019.1
20260504210505 51 304 1.0 5.0 0.00 0.03 0.00 84 1019.1
20260504210008 51 240 0.0 4.0 0.00 0.03 0.00 84 1019.1
20260504205504 51 240 0.0 6.0 0.00 0.03 0.00 84 1018.9
20260504204514 50 359 3.0 5.0 0.00 0.03 0.00 84 1018.6
20260504204008 50 4 2.0 6.0 0.00 0.03 0.00 84 1018.5
20260504203505 50 5 2.0 6.0 0.00 0.03 0.00 84 1018.4
20260504203020 50 13 3.0 5.0 0.00 0.03 0.00 84 1018.3
20260504202505 50 342 3.0 6.0 0.00 0.03 0.00 84 1018.2
20260504202010 50 348 3.0 7.0 0.00 0.03 0.00 84 1018.1
20260504201519 50 324 2.0 7.0 0.00 0.03 0.00 84 1018.1
20260504201003 50 338 2.0 6.0 0.00 0.03 0.00 83 1017.9
20260504200510 51 345 2.0 10.0 0.00 0.03 0.00 83 1017.9
20260504200010 51 14 4.0 10.0 0.00 0.03 0.00 83 1017.9
20260504195506 51 355 4.0 6.0 0.00 0.03 0.00 83 1017.8
20260504195004 51 2 3.0 7.0 0.00 0.03 0.00 83 1017.7
20260504194520 51 5 3.0 7.0 0.00 0.03 0.00 83 1017.7
20260504194009 51 344 3.0 7.0 0.00 0.03 0.00 83 1017.6
20260504193505 51 343 3.0 6.0 0.00 0.03 0.00 83 1017.7
20260504193017 51 341 2.0 6.0 0.00 0.03 0.00 82 1017.7
20260504192508 51 17 2.0 6.0 0.00 0.03 0.00 82 1017.5
20260504192009 51 343 4.0 7.0 0.00 0.03 0.00 82 1017.6
20260504191527 51 348 5.0 8.0 0.00 0.03 0.00 82 1017.4
20260504191009 51 20 4.0 8.0 0.00 0.03 0.00 81 1017.4
20260504190508 51 333 4.0 7.0 0.00 0.03 0.00 81 1017.3
20260504190024 51 8 4.0 7.0 0.00 0.03 0.00 81 1017.3
20260504185007 51 16 3.0 7.0 0.00 0.03 0.00 81 1017.2
20260504184010 51 351 3.0 7.0 0.00 0.03 0.00 81 1017.0
20260504183504 51 13 4.0 7.0 0.00 0.03 0.00 81 1016.9
20260504183014 51 1 4.0 8.0 0.00 0.03 0.00 81 1016.9
20260504182507 51 6 4.0 8.0 0.00 0.03 0.00 81 1016.8
20260504182010 51 6 3.0 7.0 0.00 0.03 0.00 82 1016.7
20260504181519 51 343 3.0 7.0 0.00 0.03 0.00 82 1016.7
20260504181004 51 349 3.0 7.0 0.00 0.03 0.00 82 1016.7
20260504180509 51 3 4.0 7.0 0.00 0.03 0.00 82 1016.7
20260504180019 51 349 2.0 7.0 0.00 0.03 0.00 82 1016.6
20260504175510 51 360 3.0 7.0 0.00 0.03 0.00 82 1016.6
20260504174513 51 346 4.0 7.0 0.00 0.03 0.00 83 1016.6
20260504173506 51 7 4.0 7.0 0.00 0.03 0.00 83 1016.6
20260504172507 51 333 4.0 8.0 0.00 0.03 0.00 83 1016.5
20260504172008 51 334 5.0 8.0 0.00 0.03 0.00 84 1016.5
20260504171011 51 328 4.0 9.0 0.00 0.03 0.00 84 1016.5
20260504151002 50 2 6.0 11.0 0.00 0.03 0.00 86 1015.8
20260504150511 50 349 6.0 10.0 0.00 0.03 0.00 86 1015.9
20260504141010 51 350 7.0 12.0 0.00 0.03 0.00 85 1015.6
20260504140503 51 337 6.0 14.0 0.00 0.03 0.00 85 1015.6
20260504110508 53 337 8.0 18.0 0.00 0.03 0.03 84 1014.5
20260504100503 53 11 9.0 21.0 0.00 0.03 0.03 84 1013.7
20260504082007 53 12 10.0 22.0 0.02 0.02 0.02 84 1012.3
20260504081517 53 358 10.0 22.0 0.02 0.02 0.02 84 1012.2
20260504081010 53 1 10.0 22.0 0.02 0.02 0.02 83 1012.1
20260504080508 53 13 11.0 23.0 0.01 0.01 0.01 83 1012.1
20260504050504 57 351 14.0 28.0 0.00 0.00 0.00 68 1010.8
20260504050012 57 9 13.0 22.0 0.00 0.00 0.00 68 1010.7
20260504045503 57 49 7.0 22.0 0.00 0.00 0.00 68 1010.8
20260504045007 58 343 9.0 27.0 0.00 0.00 0.00 68 1010.5
20260504044514 58 21 11.0 27.0 0.00 0.00 0.00 66 1010.4
20260504044006 59 323 9.0 21.0 0.00 0.00 0.00 67 1010.4
20260504043513 58 14 9.0 21.0 0.00 0.00 0.00 68 1010.6
20260504043011 57 65 12.0 22.0 0.00 0.00 0.00 67 1010.7
20260504042510 57 16 10.0 25.0 0.00 0.00 0.00 68 1010.8
20260504042005 57 349 15.0 25.0 0.00 0.00 0.00 67 1010.7
20260504041508 57 351 11.0 27.0 0.00 0.00 0.00 67 1010.6
20260504041004 57 349 13.0 27.0 0.00 0.00 0.00 67 1010.7
20260504040503 58 7 10.0 25.0 0.00 0.00 0.00 67 1010.6
20260504040008 58 359 14.0 27.0 0.00 0.00 0.00 67 1010.8
20260504035504 57 4 13.0 27.0 0.00 0.00 0.00 68 1010.7
20260504035004 57 16 10.0 25.0 0.00 0.00 0.00 68 1010.7